Home   Weather   Adak   Past weeks
Flag for USA

Past Weather in Adak, Alaska, USA — Yesterday and Last 2 Weeks

Now
35 °F

Passing clouds.


Feels Like: 30 °F
Forecast: 44 / 37 °F
Wind: 6 mph from Southwest

Location: Adak

Current Time: Oct 22, 2019 at 2:34:19 am

Latest Report: Oct 22, 2019 at 1:56 am


Visibility: 10 mi

Pressure: 29.70 "Hg

Humidity: 88%

Dew Point: 32 °F

Location of AdakLocation

Past Weather in Adak — Graph

°F

Adak Temperature Yesterday

Maximum temperature yesterday: 43 °F (at 3:56 pm)
Minimum temperature yesterday: 35 °F (at 2:56 am)
Average temperature yesterday: 39 °F

High & Low Weather Summary for the Past Weeks

 TemperatureHumidityPressure
High54 °F (Oct 14, 1:56 am)100% (Oct 12, 10:03 am)30.48 "Hg (Oct 12, 10:03 am)
Low34 °F (Oct 19, 11:07 pm)52% (Oct 8, 1:56 pm)29.10 "Hg (Oct 14, 1:56 am)
Average44 °F83%29.79 "Hg
* Reported Oct 7 1:37 am — Oct 22 1:13 am, Adak. Weather by CustomWeather, © 2019

Note: Actual official high and low records may vary slightly from our data, if they occured in-between our weather recording intervals... More about our weather records

Advertising

Adak Weather History for the Previous 24 Hours

Scroll right to see more
 ConditionsComfort  
Time TempWeatherWind HumidityBarometerVisibility
1:13 am
Tue, Oct 22
37 °FPartly cloudy.10 mph87%29.70 "Hg10 mi
12:56 am39 °FLight rain. Mostly cloudy.13 mph86%29.70 "Hg7 mi
12:13 am37 °FLight rain. Mostly cloudy.9 mph93%29.71 "Hg10 mi
11:56 pm
Mon, Oct 21
39 °FLight rain. Partly cloudy.15 mph86%29.71 "Hg10 mi
11:15 pm37 °FPassing clouds.15 mph87%29.72 "Hg10 mi
11:07 pm39 °FPartly cloudy.13 mph87%29.72 "Hg10 mi
10:56 pm39 °FPassing clouds.14 mph82%29.72 "Hg10 mi
9:56 pm38 °FPassing clouds.7 mph79%29.73 "Hg10 mi
8:56 pm39 °FPassing clouds.7 mph79%29.73 "Hg10 mi
7:56 pm39 °FPassing clouds.13 mph76%29.73 "Hg10 mi
7:15 pm39 °FLight rain. Partly cloudy.7 mph81%29.73 "Hg7 mi
6:56 pm42 °FOvercast.7 mph65%29.72 "Hg10 mi
5:56 pm43 °FOvercast.9 mph58%29.72 "Hg10 mi
4:56 pm42 °FOvercast.20 mph65%29.71 "Hg10 mi
3:56 pm43 °FMostly cloudy.8 mph71%29.71 "Hg10 mi
2:56 pm42 °FPartly sunny.10 mph73%29.70 "Hg10 mi
1:56 pm41 °FLight rain. Passing clouds.12 mph76%29.70 "Hg10 mi
12:56 pm38 °FLight rain. Cloudy.15 mph83%29.70 "Hg7 mi
11:56 am39 °FMostly cloudy.8 mph82%29.69 "Hg9 mi
11:13 am39 °FLight rain. Cloudy.7 mph81%29.68 "Hg10 mi
10:56 am40 °FCloudy.8 mph83%29.67 "Hg10 mi
9:56 am37 °FLight rain. Mostly cloudy.9 mph89%29.65 "Hg10 mi
8:56 am37 °FLight rain. Fog.5 mph89%29.63 "Hg5 mi
8:31 am37 °FLight rain. Mostly cloudy.9 mph87%29.62 "Hg10 mi
7:56 am38 °FLight rain. Overcast.7 mph86%29.61 "Hg9 mi
6:56 am39 °FMostly cloudy.No wind79%29.59 "Hg10 mi
5:56 am39 °FLight rain. Mostly cloudy.9 mph86%29.58 "Hg10 mi
4:56 am39 °FLight rain. Mostly cloudy.13 mph86%29.57 "Hg10 mi
4:26 am37 °FRain. Fog.15 mph87%29.58 "Hg6 mi
3:56 am38 °FMostly cloudy.7 mph86%29.56 "Hg10 mi
2:56 am35 °FPassing clouds.6 mph85%29.55 "Hg10 mi
Weather by CustomWeather, © 2019

See weather overview